Tracking 19490 objects as of 24-Jan-2019
HD Live streaming from Space Station
objects crossing your sky now

FACSAT 1

Track FACSAT 1 now!
10-day predictions


NORAD ID: 43721
Int'l Code: 2018-096C
Perigee: 481.8 km
Apogee: 508.9 km
Inclination: 97.5 °
Period: 94.4 minutes
Semi major axis: 6866 km
RCS: Unknown
Launch date: November 29, 2018
Source: (TBD)
Launch site: SRIHARIKOTA (SRI)
aabbcc
Your satellite tracking list
Your tracking list is empty




NASA's NSSDC Master Catalog

Two Line Element Set (TLE):
1 43721U 18096C   19023.64458498  .00001209  00000-0  49917-4 0  9990
2 43721  97.4780  93.6570 0019734 122.2954 238.0199 15.25841444  8461
Source of the keplerian elements: AFSPC